STARLINK-3090, 49132

Orbit data source: Space-Track

STARLINK-3090, 49132 is a payload satellite owned by SpaceX/Seattle (US) in LEO that was launched on Tue, 14 Sep 2021 UTC via an FALCON 9 launch vehicle from the Air Force Western Test Range (AFWTR). Payload-class satellites include a variety of spacecraft equipped with specific instruments for various scientific and technological missions. These include communications satellites like Starlink; space stations such as the ISS; scientific satellites like the Hubble; Earth observation satellites from companies like Planet Labs, Umbra, and HawkEye 360; GPS; miniature CubeSats for education and research; and military/defense satellites.

Loading next visibility...
Identifier
49132, 2021-082C
Orbit
LEO
Country
Flag of USUS
Related business
Manufacturer
SpaceX/Seattle
Mission
Operational Commercial Communications
Bus & Motor
STARLINK, Unknown motor
Mass
297 kg wet, ~275 kg dry
Launch date (UTC)
2021-09-14 (5 years ago)
Launch vehicle
FALCON 9
Launch site
Air Force Western Test Range (AFWTR)
Object type
Payload
Rocket body
Debris
Shape & HBR
Box + 1 Pan, 10.1 m
Radar Cross Section
13.562 m², Large (>1 m²)

Expand to show TLE details & history
Last TLE update: 3 days ago

TLE from 3 days ago
0 STARLINK-3090
1 49132U 21082C   26170.91511845  .00000403  00000-0  41532-4 0  9998
2 49132  70.0002  36.5843 0002804 269.1959  90.8879 14.98332514261295
Epoch: 2026-06-19T21:57Z
TLE epoch observation values (Epoch: 2026-06-19T21:57:46.234Z)
Latitude
0.00002°
Longitude
159.00442°
Altitude
574.503 km
Speed
7.574 km/s
True Right ascension
02h 26m 20s
True Declination
0° 00' 00"
Sunlit
Object was in daylight at epoch
Visualization orbit readout
Latitude
Unknown
Longitude
Unknown
Altitude
Unknown
Speed
Unknown
Apparent Right ascension
Unknown
Apparent Declination
Unknown
Sunlit
N/A
Visualization observer readout
Local Sidereal Time
21:49:47
Azimuth
Unknown
Elevation
Unknown
Doppler factor
Unknown
Orbital elements
Apogee altitude
571.945 km
Perigee altitude
568.048 km
Semi-major axis
6,948.133 km
Eccentricity
0.00028
Inclination
70.0002°
RAAN
36.5843°
Arg. of periapsis
269.1959°
True anomaly
90.92003°
Mean anomaly
90.8879°
Eccentric anomaly
90.90396°
Mean motion
3.74749 °/min
Orbital period
96.06 mins
BSTAR
0.000041532
Loading maneuver chart data...
Computing Atmospheric mass density...

Documentation

Showing up to 5 results
|